Location: Caltech
(34.1382°N, 118.1253°W)
Time: 15:06:39
(UTC-07:00)

ALOS - Visible Passes

Search period start: 19 April 2014 00:00
Search period end: 29 April 2014 00:00
Orbit: 689 x 691 km, 98.0° (Epoch: 18 April)

Date Brightness Start Highest point End Pass type
(mag) Time Alt. Az. Time Alt. Az. Time Alt. Az.
19 Apr 3.6 21:06:39 23° ENE 21:06:39 23° ENE 21:10:02 10° NNE visible
19 Apr 4.4 22:45:16 23° WNW 22:45:16 23° WNW 22:47:41 10° NW visible
20 Apr 2.7 21:45:49 51° NNE 21:45:49 51° NNE 21:49:32 10° N visible
21 Apr 4.1 20:46:21 15° ENE 20:46:38 15° ENE 20:49:13 10° NNE visible
21 Apr 3.6 22:24:58 37° WNW 22:24:58 37° WNW 22:28:12 10° NNW visible
22 Apr 3.0 21:25:31 37° ENE 21:25:31 37° ENE 21:29:24 10° N visible
22 Apr 4.9 23:04:07 15° WNW 23:04:07 15° WNW 23:05:46 10° NW visible
23 Apr 2.8 22:04:40 58° NNW 22:04:40 58° NNW 22:08:28 10° NNW visible
24 Apr 3.6 21:05:12 23° ENE 21:05:19 23° ENE 21:09:00 10° NNE visible
24 Apr 4.2 22:43:49 25° WNW 22:43:49 25° WNW 22:46:41 10° NW visible
25 Apr 2.5 21:44:21 58° NE 21:44:21 58° NE 21:48:30 10° N visible
26 Apr 4.1 20:44:53 14° ENE 20:45:36 15° ENE 20:48:08 10° NNE visible
26 Apr 3.3 22:23:30 42° WNW 22:23:30 42° WNW 22:27:10 10° NNW visible
27 Apr 2.9 21:24:02 37° ENE 21:24:02 37° ENE 21:28:20 10° N visible
27 Apr 4.7 23:02:38 17° WNW 23:02:38 17° WNW 23:04:45 10° NW visible
28 Apr 2.4 22:03:10 71° NW 22:03:10 71° NW 22:07:24 10° NNW visible
